Weather History for EHKD - January, 2014

Change the Weather History Date:

Sunday, January 5, 2014

  Actual Average Record
Temperature  
Mean Temperature 44 °F -  
Max Temperature 47 °F 40 °F 51 °F (1999)
Min Temperature 41 °F 33 °F 19 °F (1997)
Degree Days  
Heating Degree Days 21    
Moisture  
Dew Point 40 °F    
Average Humidity 84    
Maximum Humidity 94    
Minimum Humidity 66    
Precipitation  
Precipitation 0.03 in 0.08 in - ()
Sea Level Pressure  
Sea Level Pressure 29.57 in    
Wind  
Wind Speed 14 mph ()    
Max Wind Speed 21 mph    
Max Gust Speed -    
Visibility 7.6 miles    
Events Rain    
Averages and records for this station are not official NWS values.
T = Trace of Precipitation, MM = Missing Value Source: Averaged Metar Reports

Daily Weather History Graph

Daily Weather History Graph

Search for Another Location

Airport or City:

Trip Planner

Search our weather history database for the weather conditions in past years. The results will help you decide how hot, cold, wet, or windy it might be!

Date:

Astronomy

Jan. 05, 2014 Rise Set
Actual Time 8:52 AM CET 4:39 PM CET
Civil Twilight 8:11 AM CET 5:21 PM CET
Nautical Twilight 7:27 AM CET 6:05 PM CET
Astronomical Twilight 6:45 AM CET 6:47 PM CET
Moon 10:43 AM CET (1/5) 10:36 PM CET (1/5)
Length of Visible Light 9h 10m
Length of Day
7h 47m
Waxing Crescent, 22% of the Moon is Illuminated
Jan 5
Waxing Crescent
Jan 8
First Quarter
Jan 16
Full
Jan 24
Last Quarter
Jan 30
New

Hourly Weather History & Observations

Time (CET) Temp. Windchill Dew Point Humidity Pressure Visibility Wind Dir Wind Speed Gust Speed Precip Events Conditions
12:00 AM 44 °F - 43 °F 94% 29.34 in 16 mi South 11.2 mph - -   Overcast
12:03 AM 44.6 °F 39.2 °F 42.8 °F 93% 29.33 in 6.2 mi South 10.4 mph - N/A   Mostly Cloudy
12:10 AM 46.4 °F 41.5 °F 44.6 °F 93% 29.33 in 6.2 mi South 10.4 mph - N/A   Overcast
12:14 AM 46.4 °F 41.1 °F 44.6 °F 93% 29.33 in 6.2 mi South 11.5 mph - N/A   Overcast
12:25 AM 46.4 °F 39.5 °F 44.6 °F 93% 29.33 in 6.2 mi SSW 17.3 mph - N/A   Drizzle
12:27 AM 46.4 °F 39.2 °F 44.6 °F 93% 29.33 in 6.2 mi SSW 18.4 mph - N/A   Light Drizzle
12:55 AM 46.4 °F 40.7 °F 44.6 °F 93% 29.33 in 6.2 mi SSW 12.7 mph - N/A   Mostly Cloudy
1:00 AM 46 °F - 44 °F 89% 29.35 in 14 mi SSW 11.2 mph - - Rain Drizzle
1:25 AM 46.4 °F 40.1 °F 44.6 °F 93% 29.36 in 6.2 mi West 15.0 mph - N/A   Mostly Cloudy
1:55 AM 46.4 °F 40.7 °F 42.8 °F 87% 29.36 in 6.2 mi West 12.7 mph - N/A   Overcast
2:00 AM 46 °F - 42 °F 83% 29.39 in 12 mi West 13.4 mph - -   Overcast
2:06 AM 44.6 °F 37.8 °F 42.8 °F 93% 29.39 in 6.2 mi West 15.0 mph - N/A   Mostly Cloudy
2:10 AM 44.6 °F 37.8 °F 42.8 °F 93% 29.39 in 6.2 mi West 15.0 mph - N/A   Overcast
2:25 AM 44.6 °F 38.1 °F 41.0 °F 87% 29.39 in 6.2 mi West 13.8 mph - N/A   Overcast
2:55 AM 44.6 °F 38.4 °F 41.0 °F 87% 29.39 in 6.2 mi West 12.7 mph - N/A   Mostly Cloudy
3:00 AM 45 °F - 41 °F 82% 29.42 in 15 mi West 13.4 mph - -   Mostly Cloudy
3:25 AM 44.6 °F 38.1 °F 41.0 °F 87% 29.42 in 6.2 mi West 13.8 mph - N/A   Overcast
3:27 AM 44.6 °F 38.1 °F 41.0 °F 87% 29.42 in 6.2 mi West 13.8 mph - N/A   Mostly Cloudy
3:35 AM 44.6 °F 38.1 °F 41.0 °F 87% 29.42 in 6.2 mi West 13.8 mph - N/A   Overcast
3:55 AM 44.6 °F 38.4 °F 41.0 °F 87% 29.44 in 6.2 mi West 12.7 mph - N/A   Overcast
4:00 AM 44 °F - 41 °F 85% 29.45 in 14 mi West 11.2 mph - -   Overcast
4:02 AM 44.6 °F 38.8 °F 41.0 °F 87% 29.44 in 6.2 mi West 11.5 mph - N/A   Mostly Cloudy
4:06 AM 44.6 °F 38.8 °F 41.0 °F 87% 29.44 in 6.2 mi West 11.5 mph - N/A   Mostly Cloudy
4:12 AM 44.6 °F 38.4 °F 41.0 °F 87% 29.44 in 6.2 mi West 12.7 mph - N/A   Partly Cloudy
4:25 AM 44.6 °F 38.8 °F 41.0 °F 87% 29.44 in 6.2 mi West 11.5 mph - N/A   Partly Cloudy
4:55 AM 44.6 °F 38.8 °F 41.0 °F 87% 29.47 in 6.2 mi West 11.5 mph - N/A   Mostly Cloudy
5:00 AM 43 °F - 40 °F 85% 29.48 in 13 mi WSW 11.2 mph - -   Scattered Clouds
5:25 AM 42.8 °F 37.0 °F 39.2 °F 87% 29.47 in 6.2 mi WSW 10.4 mph - N/A   Unknown
5:55 AM 44.6 °F 38.4 °F 41.0 °F 87% 29.50 in 6.2 mi WSW 12.7 mph - N/A   Partly Cloudy
5:58 AM 44.6 °F 38.8 °F 41.0 °F 87% 29.50 in 6.2 mi WSW 11.5 mph - N/A   Scattered Clouds
6:00 AM 44 °F - 40 °F 80% 29.51 in 12 mi WSW 13.4 mph - -   Scattered Clouds
6:03 AM 44.6 °F 38.4 °F 39.2 °F 81% 29.50 in 6.2 mi WSW 12.7 mph - N/A   Mostly Cloudy
6:06 AM 44.6 °F 37.4 °F 39.2 °F 81% 29.50 in 6.2 mi WSW 16.1 mph - N/A   Mostly Cloudy
6:11 AM 44.6 °F 37.2 °F 39.2 °F 81% 29.50 in 6.2 mi WSW 17.3 mph - N/A   Scattered Clouds
6:18 AM 44.6 °F 37.4 °F 39.2 °F 81% 29.50 in 6.2 mi WSW 16.1 mph - N/A   Scattered Clouds
6:25 AM 44.6 °F 37.4 °F 39.2 °F 81% 29.50 in 6.2 mi WSW 16.1 mph - N/A   Scattered Clouds
6:29 AM 42.8 °F 34.8 °F 39.2 °F 87% 29.50 in 6.2 mi WSW 17.3 mph - N/A   Partly Cloudy
6:35 AM 42.8 °F 35.1 °F 39.2 °F 87% 29.50 in 6.2 mi WSW 16.1 mph - N/A   Unknown
6:55 AM 42.8 °F 35.1 °F 39.2 °F 87% 29.50 in 6.2 mi WSW 16.1 mph - N/A   Unknown
6:58 AM 42.8 °F 35.4 °F 39.2 °F 87% 29.50 in 6.2 mi WSW 15.0 mph - N/A   Scattered Clouds
7:00 AM 43 °F - 38 °F 76% 29.53 in 17 mi WSW 13.4 mph - -   Partly Cloudy
7:03 AM 42.8 °F 35.8 °F 37.4 °F 81% 29.50 in 6.2 mi WSW 13.8 mph - N/A   Scattered Clouds
7:08 AM 42.8 °F 35.4 °F 37.4 °F 81% 29.50 in 6.2 mi WSW 15.0 mph - N/A   Partly Cloudy
7:25 AM 42.8 °F 35.4 °F 37.4 °F 81% 29.53 in 6.2 mi WSW 15.0 mph - N/A   Unknown
7:55 AM 42.8 °F 35.8 °F 37.4 °F 81% 29.53 in 6.2 mi WSW 13.8 mph - N/A   Partly Cloudy
8:00 AM 43 °F - 37 °F 73% 29.56 in 17 mi WSW 13.4 mph - -  
8:25 AM 42.8 °F 35.8 °F 39.2 °F 87% 29.56 in 6.2 mi WSW 13.8 mph - N/A   Partly Cloudy
8:35 AM 42.8 °F 35.4 °F 37.4 °F 81% 29.56 in 6.2 mi WSW 15.0 mph - N/A   Scattered Clouds
8:43 AM 42.8 °F 35.4 °F 37.4 °F 81% 29.56 in 6.2 mi WSW 15.0 mph - N/A   Partly Cloudy
8:55 AM 42.8 °F 35.8 °F 37.4 °F 81% 29.56 in 6.2 mi WSW 13.8 mph - N/A   Partly Cloudy
8:57 AM 42.8 °F 35.8 °F 37.4 °F 81% 29.59 in 6.2 mi WSW 13.8 mph - N/A   Scattered Clouds
9:00 AM 44 °F - 37 °F 70% 29.60 in 17 mi WSW 13.4 mph - -   Partly Cloudy
9:01 AM 42.8 °F 35.8 °F 37.4 °F 81% 29.59 in 6.2 mi WSW 13.8 mph - N/A   Scattered Clouds
9:11 AM 42.8 °F 35.4 °F 37.4 °F 81% 29.59 in 6.2 mi WSW 15.0 mph - N/A   Scattered Clouds
9:15 AM 42.8 °F 35.8 °F 37.4 °F 81% 29.59 in 6.2 mi WSW 13.8 mph - N/A   Partly Cloudy
9:25 AM 44.6 °F 38.1 °F 37.4 °F 76% 29.59 in 6.2 mi WSW 13.8 mph - N/A   Unknown
9:55 AM 44.6 °F 38.4 °F 37.4 °F 76% 29.59 in 6.2 mi SW 12.7 mph - N/A   Partly Cloudy
10:00 AM 44 °F - 38 °F 74% 29.62 in 19 mi SW 13.4 mph - -  
10:25 AM 44.6 °F 37.4 °F 39.2 °F 81% 29.62 in 6.2 mi SW 16.1 mph - N/A   Partly Cloudy
10:35 AM 44.6 °F 37.8 °F 39.2 °F 81% 29.62 in 6.2 mi SW 15.0 mph - N/A   Mostly Cloudy
10:41 AM 44.6 °F 38.1 °F 39.2 °F 81% 29.62 in 6.2 mi SW 13.8 mph - N/A   Scattered Clouds
10:49 AM 44.6 °F 38.4 °F 39.2 °F 81% 29.62 in 6.2 mi SW 12.7 mph - N/A   Unknown
10:55 AM 44.6 °F 38.4 °F 39.2 °F 81% 29.62 in 6.2 mi SW 12.7 mph - N/A   Unknown
11:00 AM 46 °F - 39 °F 69% 29.63 in 18 mi SW 13.4 mph - -   Scattered Clouds
11:25 AM 46.4 °F 40.4 °F 39.2 °F 76% 29.62 in 6.2 mi SW 13.8 mph - N/A   Scattered Clouds
11:55 AM 46.4 °F 40.4 °F 39.2 °F 76% 29.62 in 6.2 mi SW 13.8 mph - N/A   Scattered Clouds
11:59 AM 48.2 °F - 41.0 °F 76% 29.62 in 6.2 mi SW 16.1 mph - N/A   Mostly Cloudy
12:00 PM 47 °F - 39 °F 67% 29.64 in 16 mi SW 17.9 mph - -   Overcast
12:03 PM 48.2 °F - 39.2 °F 71% 29.62 in 6.2 mi SW 17.3 mph - N/A   Mostly Cloudy
12:07 PM 46.4 °F 39.2 °F 39.2 °F 76% 29.62 in 6.2 mi SW 18.4 mph - N/A   Mostly Cloudy
12:11 PM 46.4 °F 39.2 °F 39.2 °F 76% 29.62 in 6.2 mi SW 18.4 mph - N/A   Mostly Cloudy
12:25 PM 46.4 °F 39.5 °F 39.2 °F 76% 29.62 in 6.2 mi WSW 17.3 mph - N/A   Unknown
12:55 PM 46.4 °F 39.8 °F 39.2 °F 76% 29.65 in 6.2 mi WSW 16.1 mph - N/A   Partly Cloudy
1:00 PM 47 °F - 39 °F 66% 29.65 in 17 mi WSW 15.7 mph - -   Partly Cloudy
1:25 PM 46.4 °F 39.8 °F 39.2 °F 76% 29.65 in 6.2 mi WSW 16.1 mph - N/A   Mostly Cloudy
1:28 PM 46.4 °F 39.8 °F 39.2 °F 76% 29.65 in 6.2 mi WSW 16.1 mph - N/A   Partly Cloudy
1:55 PM 46.4 °F 40.4 °F 41.0 °F 81% 29.65 in 6.2 mi WSW 13.8 mph - N/A   Unknown
2:00 PM 47 °F - 40 °F 71% 29.68 in 16 mi WSW 15.7 mph - -  
2:25 PM 46.4 °F 40.1 °F 39.2 °F 76% 29.68 in 6.2 mi SW 15.0 mph - N/A   Partly Cloudy
2:55 PM 46.4 °F 41.1 °F 41.0 °F 81% 29.68 in 6.2 mi SW 11.5 mph - N/A   Mostly Cloudy
2:59 PM 44.6 °F 38.4 °F 42.8 °F 93% 29.68 in 6.2 mi SW 12.7 mph - N/A   Mostly Cloudy
3:00 PM 45 °F - 42 °F 86% 29.70 in 8 mi SSW 13.4 mph - -   Scattered Clouds
3:09 PM 44.6 °F 38.4 °F 42.8 °F 93% 29.68 in 6.2 mi SW 12.7 mph - N/A   Scattered Clouds
3:19 PM 44.6 °F 37.8 °F 42.8 °F 93% 29.68 in 6.2 mi SSW 15.0 mph - N/A   Mostly Cloudy
3:25 PM 44.6 °F 38.1 °F 42.8 °F 93% 29.71 in 6.2 mi SSW 13.8 mph - N/A   Mostly Cloudy
3:27 PM 44.6 °F 38.1 °F 42.8 °F 93% 29.71 in 6.2 mi SSW 13.8 mph - N/A   Mostly Cloudy
3:31 PM 44.6 °F 37.8 °F 42.8 °F 93% 29.71 in 6.2 mi SSW 15.0 mph - N/A   Mostly Cloudy
3:41 PM 44.6 °F 37.8 °F 42.8 °F 93% 29.71 in 6.2 mi SSW 15.0 mph - N/A   Partly Cloudy
3:55 PM 44.6 °F 38.1 °F 42.8 °F 93% 29.71 in 6.2 mi SSW 13.8 mph - N/A   Unknown
4:00 PM 44 °F - 42 °F 89% 29.72 in 8 mi SSW 13.4 mph - -  
4:01 PM 44.6 °F 38.1 °F 42.8 °F 93% 29.71 in 6.2 mi SSW 13.8 mph - N/A   Unknown
4:09 PM 44.6 °F 37.8 °F 42.8 °F 93% 29.71 in 6.2 mi SSW 15.0 mph - N/A   Scattered Clouds
4:13 PM 44.6 °F 37.8 °F 42.8 °F 93% 29.71 in 6.2 mi SSW 15.0 mph - N/A   Mostly Cloudy
4:25 PM 42.8 °F 35.1 °F 41.0 °F 93% 29.71 in 6.2 mi SSW 16.1 mph - N/A   Mostly Cloudy
4:30 PM 42.8 °F 35.1 °F 41.0 °F 93% 29.71 in 6.2 mi SSW 16.1 mph - N/A   Scattered Clouds
4:55 PM 42.8 °F 35.1 °F 41.0 °F 93% 29.71 in 6.2 mi SSW 16.1 mph - N/A   Mostly Cloudy
5:00 PM 43 °F - 40 °F 84% 29.71 in 12 mi South 13.4 mph - -   Partly Cloudy
5:25 PM 42.8 °F 36.2 °F 39.2 °F 87% 29.68 in 6.2 mi South 12.7 mph - N/A   Mostly Cloudy
5:55 PM 42.8 °F 35.1 °F 39.2 °F 87% 29.68 in 6.2 mi South 16.1 mph - N/A   Partly Cloudy
6:00 PM 42 °F - 39 °F 84% 29.70 in 15 mi South 17.9 mph - -   Mostly Cloudy
6:16 PM 42.8 °F 35.1 °F 39.2 °F 87% 29.68 in 6.2 mi South 16.1 mph - N/A   Overcast
6:25 PM 42.8 °F 34.5 °F 39.2 °F 87% 29.68 in 6.2 mi South 18.4 mph - N/A   Overcast
6:27 PM 42.8 °F 34.5 °F 39.2 °F 87% 29.68 in 6.2 mi South 18.4 mph - N/A   Overcast
6:55 PM 41.0 °F 32.8 °F 37.4 °F 87% 29.68 in 6.2 mi South 16.1 mph - N/A   Overcast
7:00 PM 42 °F - 38 °F 80% 29.68 in 17 mi South 15.7 mph - -   Partly Cloudy
7:07 PM 41.0 °F 32.8 °F 37.4 °F 87% 29.68 in 6.2 mi South 16.1 mph - N/A   Overcast
7:12 PM 41.0 °F 32.2 °F 37.4 °F 87% 29.68 in 6.2 mi South 18.4 mph - N/A   Overcast
7:17 PM 41.0 °F 32.2 °F 37.4 °F 87% 29.68 in 6.2 mi South 18.4 mph - N/A   Overcast
7:25 PM 41.0 °F 32.2 °F 37.4 °F 87% 29.68 in 6.2 mi South 18.4 mph - N/A   Overcast
7:27 PM 41.0 °F 32.5 °F 37.4 °F 87% 29.68 in 6.2 mi South 17.3 mph - N/A   Overcast
7:31 PM 41.0 °F 32.2 °F 37.4 °F 87% 29.65 in 6.2 mi South 18.4 mph - N/A   Mostly Cloudy
7:37 PM 41.0 °F 32.2 °F 37.4 °F 87% 29.65 in 6.2 mi South 18.4 mph - N/A   Mostly Cloudy
7:41 PM 41.0 °F 32.2 °F 37.4 °F 87% 29.65 in 6.2 mi South 18.4 mph - N/A   Overcast
7:45 PM 41.0 °F 31.9 °F 37.4 °F 87% 29.65 in 6.2 mi South 19.6 mph - N/A   Overcast
7:55 PM 41.0 °F 31.9 °F 37.4 °F 87% 29.65 in 6.2 mi South 19.6 mph - N/A   Overcast
8:00 PM 41 °F - 38 °F 83% 29.66 in 16 mi South 17.9 mph - -   Overcast
8:02 PM 41.0 °F 32.2 °F 37.4 °F 87% 29.65 in 6.2 mi South 18.4 mph - N/A   Overcast
8:25 PM 41.0 °F 32.2 °F 37.4 °F 87% 29.65 in 6.2 mi South 18.4 mph - N/A   Partly Cloudy
8:55 PM 41.0 °F 32.2 °F 37.4 °F 87% 29.65 in 6.2 mi South 18.4 mph - N/A   Overcast
9:00 PM 41 °F - 38 °F 84% 29.67 in 22 mi South 20.1 mph - -   Overcast
9:25 PM 41.0 °F 32.2 °F 37.4 °F 87% 29.65 in 6.2 mi South 18.4 mph - N/A   Mostly Cloudy
9:55 PM 41.0 °F 31.9 °F 37.4 °F 87% 29.62 in 6.2 mi South 19.6 mph - N/A   Mostly Cloudy
10:00 PM 41 °F - 38 °F 83% 29.63 in 22 mi South 17.9 mph - -   Overcast
10:25 PM 41.0 °F 31.9 °F 37.4 °F 87% 29.59 in 6.2 mi South 19.6 mph - N/A   Overcast
10:55 PM 41.0 °F 31.9 °F 37.4 °F 87% 29.59 in 6.2 mi South 19.6 mph - N/A   Overcast
11:00 PM 42 °F - 38 °F 79% 29.59 in 22 mi South 20.1 mph - -   Overcast
11:25 PM 42.8 °F 34.0 °F 37.4 °F 81% 29.56 in 6.2 mi South 20.7 mph - N/A   Overcast
11:55 PM 42.8 °F 34.0 °F 37.4 °F 81% 29.56 in 6.2 mi South 20.7 mph - N/A   Mostly Cloudy